Location: Gollag?dem
(16.8053°N, 80.8024°E)
Time: 10:00:57
(UTC+00:00)

Delta 202 - Pass Details

Date: 13 August 2020
Orbit: 781 x 2713 km, 18.5° (Epoch: 18 September)

Event Time Altitude Azimuth Distance (km) Brightness Sun altitude
Rises 13:19:16 0° 272° (W) 4,958 9.6 -4.6°
Reaches altitude 10° 13:23:05 10° 273° (W) 3,658 8.6 -5.4°
Maximum altitude 13:31:55 78° 360° (N) 1,118 4.4 -7.5°
Drops below altitude 10° 13:37:58 10° 87° (E) 2,553 5.6 -8.9°
Enters shadow 13:38:15 - 87° (E) 2,658 5.7 -8.9°
